Location: Essen
(51.4609°N, 7.0127°E)
Time: 06:03:35
(UTC+02:00)

OTV 5 (USA 277) - Visible Passes

Search period start: 26 May 2018 00:00
Search period end: 05 June 2018 00:00
Orbit: 308 x 326 km, 54.5° (Epoch: 06 May)

Date Brightness Start Highest point End Pass type
(mag) Time Alt. Az. Time Alt. Az. Time Alt. Az.
02 Jun ? 04:16:05 10° S 04:18:03 18° SE 04:20:01 10° E visible
03 Jun ? 04:29:43 10° SW 04:32:15 35° SSE 04:34:50 10° ENE visible
04 Jun ? 03:12:19 12° SE 03:12:44 12° SE 03:13:59 10° ESE visible
